| time (UTC) | temp C | wind direction | speed KPH | gust KPH | rain 1hr cm | rain 24hr cm | rain mn cm | humidity % | barometer mb |
| 20260504183022 | 21 | 292 | 6.4 | 24.1 | 0.00 | 0.00 | 0.00 | 37 | 1003.5 |
| 20260504181545 | 21 | 254 | 8.0 | 17.7 | 0.00 | 0.00 | 0.00 | 35 | 1003.7 |
| 20260504180117 | 21 | 260 | 6.4 | 20.9 | 0.00 | 0.00 | 0.00 | 36 | 1003.9 |
| 20260504174516 | 21 | 297 | 8.0 | 20.9 | 0.00 | 0.00 | 0.00 | 36 | 1004.0 |
| 20260504173039 | 21 | 260 | 4.8 | 22.5 | 0.00 | 0.00 | 0.00 | 36 | 1004.2 |
| 20260504171504 | 20 | 256 | 4.8 | 16.1 | 0.00 | 0.00 | 0.00 | 37 | 1004.4 |
| 20260504120110 | 12 | 271 | 1.6 | 6.4 | 0.00 | 0.00 | 0.00 | 73 | 1006.8 |
| 20260504100108 | 8 | 267 | 0.0 | 6.4 | 0.00 | 0.00 | 0.00 | 76 | 1007.0 |
| 20260504081600 | 8 | 291 | 0.0 | 3.2 | 0.00 | 0.00 | 0.00 | 60 | 1006.9 |
| 20260504050012 | 10 | 280 | 0.0 | 3.2 | 0.00 | 0.00 | 0.00 | 49 | 1006.7 |
| 20260504044537 | 10 | 273 | 1.6 | 3.2 | 0.00 | 0.00 | 0.00 | 49 | 1006.7 |
| 20260504043102 | 10 | 282 | 0.0 | 1.6 | 0.00 | 0.00 | 0.00 | 50 | 1006.6 |
| 20260504041526 | 10 | 282 | 0.0 | 0.0 | 0.00 | 0.00 | 0.00 | 51 | 1006.3 |
| 20260504040053 | 10 | 282 | 0.0 | 0.0 | 0.00 | 0.00 | 0.00 | 50 | 1006.3 |
| 20260504034517 | 10 | 282 | 0.0 | 0.0 | 0.00 | 0.00 | 0.00 | 50 | 1006.2 |
| 20260504033040 | 10 | 282 | 0.0 | 0.0 | 0.00 | 0.00 | 0.00 | 50 | 1006.1 |
| 20260504031506 | 11 | 282 | 0.0 | 3.2 | 0.00 | 0.00 | 0.00 | 49 | 1006.0 |
| 20260504030029 | 11 | 290 | 0.0 | 0.0 | 0.00 | 0.00 | 0.00 | 49 | 1006.0 |
| 20260504024616 | 11 | 292 | 0.0 | 0.0 | 0.00 | 0.00 | 0.00 | 49 | 1006.1 |
| 20260504023028 | 11 | 294 | 0.0 | 0.0 | 0.00 | 0.00 | 0.00 | 49 | 1006.0 |
| 20260504021551 | 11 | 294 | 0.0 | 0.0 | 0.00 | 0.00 | 0.00 | 48 | 1006.0 |
| 20260504020021 | 11 | 295 | 0.0 | 0.0 | 0.00 | 0.00 | 0.00 | 46 | 1006.0 |
| 20260504014548 | 11 | 295 | 0.0 | 0.0 | 0.00 | 0.00 | 0.00 | 47 | 1005.9 |
| 20260504013018 | 11 | 294 | 0.0 | 0.0 | 0.00 | 0.00 | 0.00 | 46 | 1005.8 |
| 20260504011505 | 12 | 294 | 0.0 | 0.0 | 0.00 | 0.00 | 0.00 | 45 | 1005.6 |
| 20260504010027 | 12 | 295 | 0.0 | 1.6 | 0.00 | 0.00 | 0.00 | 42 | 1005.4 |
| 20260504004555 | 12 | 294 | 0.0 | 1.6 | 0.00 | 0.00 | 0.00 | 42 | 1005.3 |
| 20260504003030 | 13 | 292 | 0.0 | 4.8 | 0.00 | 0.00 | 0.00 | 41 | 1005.1 |
| 20260504001552 | 13 | 292 | 1.6 | 4.8 | 0.00 | 0.00 | 0.00 | 40 | 1004.9 |
| 20260504000037 | 13 | 292 | 1.6 | 9.7 | 0.00 | 0.00 | 0.00 | 38 | 1004.8 |
| 20260503234550 | 14 | 285 | 4.8 | 12.9 | 0.00 | 0.00 | 0.00 | 37 | 1004.7 |
| 20260503233102 | 15 | 302 | 4.8 | 16.1 | 0.00 | 0.00 | 0.00 | 36 | 1004.6 |
| 20260503231529 | 15 | 287 | 8.0 | 19.3 | 0.00 | 0.00 | 0.00 | 34 | 1004.5 |
| 20260503224553 | 15 | 308 | 11.3 | 22.5 | 0.00 | 0.00 | 0.00 | 33 | 1004.4 |
| 20260503223018 | 15 | 270 | 9.7 | 25.7 | 0.00 | 0.00 | 0.00 | 32 | 1004.3 |
| 20260503221601 | 16 | 318 | 6.4 | 25.7 | 0.00 | 0.00 | 0.00 | 32 | 1004.3 |
| 20260503220024 | 15 | 261 | 9.7 | 35.4 | 0.00 | 0.00 | 0.00 | 32 | 1004.3 |
| 20260503214545 | 15 | 309 | 4.8 | 25.7 | 0.00 | 0.00 | 0.00 | 32 | 1004.3 |
| 20260503213014 | 15 | 310 | 9.7 | 27.4 | 0.00 | 0.00 | 0.00 | 33 | 1004.2 |
| 20260503211534 | 15 | 301 | 11.3 | 22.5 | 0.00 | 0.00 | 0.00 | 33 | 1004.1 |
| 20260503204504 | 15 | 326 | 6.4 | 24.1 | 0.00 | 0.00 | 0.00 | 34 | 1004.3 |
| 20260503203103 | 14 | 315 | 11.3 | 30.6 | 0.00 | 0.00 | 0.00 | 34 | 1004.6 |
| 20260503201516 | 14 | 315 | 9.7 | 19.3 | 0.00 | 0.00 | 0.00 | 35 | 1004.4 |
| 20260503200051 | 13 | 313 | 11.3 | 29.0 | 0.00 | 0.00 | 0.00 | 37 | 1004.6 |
| 20260503194521 | 13 | 318 | 14.5 | 38.6 | 0.00 | 0.00 | 0.00 | 34 | 1004.8 |
| 20260503193040 | 13 | 293 | 8.0 | 25.7 | 0.00 | 0.00 | 0.00 | 35 | 1004.9 |
| 20260503191509 | 13 | 299 | 12.9 | 27.4 | 0.00 | 0.00 | 0.00 | 35 | 1005.1 |
| 20260503190039 | 13 | 296 | 6.4 | 29.0 | 0.00 | 0.00 | 0.00 | 37 | 1005.0 |
| 20260503184507 | 13 | 304 | 6.4 | 30.6 | 0.00 | 0.00 | 0.00 | 40 | 1005.2 |